{"data":{"norad_id":68235,"epoch":"2026-09-19T22:55:44.387040Z","epoch_age_seconds":98630,"freshness":"FRESH","line1":"1 68235U 26054D   26262.95537485  .00015736  00000+0  47574-3 0  9996","line2":"2 68235  53.1595 104.6101 0001177  90.3522 269.7616 15.34408967 28873","mean_motion":15.34408967,"eccentricity":0.0001177,"inclination_deg":53.1595,"raan_deg":104.6101,"arg_perigee_deg":90.3522,"mean_anomaly_deg":269.7616,"bstar":0.00047574,"rev_number":2887,"period_min":93.847209640297,"perigee_km":461.87142476382,"apogee_km":463.48175228256,"semimajor_km":6840.8135885232,"source":"CELESTRAK","updated_at":"2026-09-20T09:00:43.839625Z"}}